sat.trackr.live / text

‹ back to catalog

INTELSAT 28 (IS-28)

NORAD 37392 · 2011-016A

PAYLOAD ACTIVE UNKNOWN

§ Identity

Operator
Country
ITSO
Launch date
2011-04-22
Launch site
FRGUI
Launch vehicle
Mass (kg)
RCS (m²)
25.12

Purposes: comms

External: N2YO · Heavens-Above · Gunter

§ Orbital elements

Epoch: 2026-09-14T22:12:25.409376Z

Period
1,436.07 min
Inclination
2.0318°
Eccentricity
0.0003553
Mean motion
1.00273317 rev/d
Perigee alt
35,771.2 km
Apogee alt
35,801.1 km
Semi-major
42,164.3 km
B*
0.0000e+0
RAAN
81.4153°
Arg perigee
95.1617°
Mean anomaly
118.7520°
Rev number
5,418

§ Raw data

INTELSAT 28 (IS-28)1 37392U 11016A   26257.92529409 -.00000231  00000+0  00000+0 0  99902 37392   2.0318  81.4153 0003553  95.1617 118.7520  1.00273317 54183

JSON: /api/v1/satellites/37392 · /tle

For live sub-satellite position, see the globe view (requires WebGL).

§ Visibility from observer

Set your observer location to see the next 7 days of passes ≥ 10°. The values pass through the URL so the page stays shareable.

No JS? Fill the form by hand. The geolocation button needs JavaScript.